ISS (ZARYA), 25544

Orbit data source: Space-Track

The International Space Station (ISS) is a collaborative project involving NASA, Roscosmos, ESA, JAXA, and CSA. It is the largest human-made structure in low Earth orbit (LEO). It serves as a microgravity laboratory where scientific research is conducted in various fields, such as astrobiology, astronomy, meteorology, and physics. Astronauts have continuously inhabited the ISS since Nov 2000, and the space station supports testing spacecraft systems and equipment needed for long-duration missions to the Moon and Mars.

Loading next visibility...
Identifier
25544, 1998-067A
Orbit
LEO
Country
Flag of CISCIS
Related business
Manufacturer
Khrunichev
Mission
Operational Civil Spaceship
Bus & Motor
77KS, Unknown motor
Mass
20,351 kg wet, ~19,000 kg dry
Launch date (UTC)
1998-11-20 (28 years ago)
Launch vehicle
PROTON-K
Launch site
Tyuratam Missile And Space Complex (TTMTR)
Object type
Payload
Rocket body
Debris
Shape & HBR
Irr, 66.1 m
Radar Cross Section
5762.400 m², Large (>1 m²)

Expand to show TLE details & history
Last TLE update: 7 hours ago

TLE from 7 hours ago
0 ISS (ZARYA)
1 25544U 98067A   26251.46617103  .00001902  00000-0  42648-4 0  9994
2 25544  51.6295 247.9233 0004930 112.8116 247.3394 15.49040812584661
Epoch: 2026-09-08T11:11Z
TLE epoch observation values (Epoch: 2026-09-08T11:11:17.176Z)
Latitude
-0.00001°
Longitude
92.56954°
Altitude
421.563 km
Speed
7.659 km/s
True Right ascension
16h 31m 41s
True Declination
0° 00' 00"
Sunlit
Object was in daylight at epoch
Visualization orbit readout
Latitude
Unknown
Longitude
Unknown
Altitude
Unknown
Speed
Unknown
Apparent Right ascension
Unknown
Apparent Declination
Unknown
Sunlit
N/A
Visualization observer readout
Local Sidereal Time
10:13:38
Azimuth
Unknown
Elevation
Unknown
Doppler factor
Unknown
Orbital elements
Apogee altitude
423.392 km
Perigee altitude
416.689 km
Semi-major axis
6,798.177 km
Eccentricity
0.00049
Inclination
51.6295°
RAAN
247.9233°
Arg. of periapsis
112.8116°
True anomaly
247.28728°
Mean anomaly
247.3394°
Eccentric anomaly
247.31334°
Mean motion
3.87217 °/min
Orbital period
92.97 mins
BSTAR
0.000042648
Loading maneuver chart data...
Computing Atmospheric mass density...

Documentation

Showing up to 5 results
|